TimeEDT,TemperatureF,Dew PointF,Humidity,Sea Level PressureIn,VisibilityMPH,Wind Direction,Wind SpeedMPH,Gust SpeedMPH,PrecipitationIn,Events,Conditions,WindDirDegrees,DateUTC
12:39 AM,57.2,50.0,77,29.71,10.0,West,17.3,31.1,N/A,,Overcast,260,2012-10-15 04:39:00
12:53 AM,57.9,50.0,75,29.71,10.0,West,17.3,26.5,N/A,,Overcast,260,2012-10-15 04:53:00
1:53 AM,53.1,46.9,80,29.75,10.0,West,19.6,29.9,0.01,,Overcast,280,2012-10-15 05:53:00
2:53 AM,52.0,45.0,77,29.76,10.0,West,13.8,-,N/A,,Overcast,280,2012-10-15 06:53:00
3:53 AM,52.0,46.0,80,29.76,10.0,WSW,10.4,-,N/A,,Overcast,250,2012-10-15 07:53:00
4:53 AM,52.0,46.9,83,29.75,10.0,West,11.5,17.3,0.01,,Overcast,270,2012-10-15 08:53:00
5:53 AM,52.0,46.0,80,29.77,10.0,West,10.4,17.3,N/A,,Overcast,280,2012-10-15 09:53:00
6:53 AM,50.0,45.0,83,29.78,10.0,West,9.2,-,N/A,,Mostly Cloudy,270,2012-10-15 10:53:00
7:07 AM,51.8,44.6,76,29.78,10.0,West,6.9,-,N/A,,Overcast,260,2012-10-15 11:07:00
7:53 AM,51.1,46.0,83,29.79,10.0,West,4.6,-,N/A,,Overcast,270,2012-10-15 11:53:00
8:22 AM,51.8,46.4,82,29.80,10.0,WSW,5.8,-,N/A,,Overcast,250,2012-10-15 12:22:00
8:53 AM,51.1,46.9,86,29.80,10.0,West,8.1,-,N/A,,Overcast,270,2012-10-15 12:53:00
9:14 AM,51.8,46.4,82,29.80,10.0,West,5.8,-,N/A,,Overcast,260,2012-10-15 13:14:00
9:49 AM,51.8,48.2,88,29.80,8.0,WSW,8.1,-,0.00,,Overcast,250,2012-10-15 13:49:00
9:53 AM,51.1,48.0,89,29.80,8.0,WSW,5.8,-,0.00,,Overcast,250,2012-10-15 13:53:00
10:48 AM,51.8,46.4,82,29.82,10.0,WNW,10.4,-,N/A,,Overcast,300,2012-10-15 14:48:00
10:53 AM,51.1,48.0,89,29.82,10.0,WNW,9.2,-,N/A,,Overcast,300,2012-10-15 14:53:00
11:18 AM,51.8,46.4,82,29.82,10.0,WNW,12.7,-,N/A,,Overcast,290,2012-10-15 15:18:00
11:31 AM,51.8,46.4,82,29.83,10.0,WNW,12.7,-,N/A,,Overcast,290,2012-10-15 15:31:00
11:53 AM,52.0,45.0,77,29.84,10.0,WNW,11.5,20.7,N/A,,Overcast,290,2012-10-15 15:53:00
12:30 PM,53.6,46.4,77,29.84,10.0,WNW,12.7,-,N/A,,Overcast,290,2012-10-15 16:30:00
12:49 PM,51.8,44.6,76,29.84,10.0,WNW,16.1,21.9,N/A,,Overcast,300,2012-10-15 16:49:00
12:53 PM,51.1,45.0,80,29.85,10.0,WNW,11.5,21.9,N/A,,Overcast,290,2012-10-15 16:53:00
1:28 PM,51.8,46.4,82,29.85,10.0,West,9.2,-,0.00,,Overcast,280,2012-10-15 17:28:00
1:53 PM,52.0,46.0,80,29.86,10.0,WNW,12.7,18.4,0.00,,Overcast,300,2012-10-15 17:53:00
2:11 PM,53.6,44.6,72,29.85,10.0,WNW,10.4,-,N/A,,Overcast,290,2012-10-15 18:11:00
2:49 PM,51.8,44.6,76,29.85,10.0,NW,12.7,-,0.00,Rain,Light Rain,320,2012-10-15 18:49:00
2:53 PM,50.0,45.0,83,29.86,10.0,NW,11.5,-,0.00,Rain,Light Rain,320,2012-10-15 18:53:00
3:10 PM,50.0,46.4,87,29.85,10.0,NW,9.2,-,0.00,,Overcast,320,2012-10-15 19:10:00
3:53 PM,51.1,46.0,83,29.87,10.0,WNW,8.1,-,0.00,,Mostly Cloudy,300,2012-10-15 19:53:00
4:21 PM,53.6,46.4,77,29.86,10.0,NW,6.9,17.3,0.01,,Overcast,310,2012-10-15 20:21:00
4:53 PM,53.1,44.1,71,29.88,10.0,WNW,16.1,19.6,0.01,,Overcast,300,2012-10-15 20:53:00
5:53 PM,52.0,41.0,66,29.90,10.0,NW,16.1,23.0,N/A,,Overcast,310,2012-10-15 21:53:00
6:53 PM,50.0,43.0,77,29.92,10.0,WNW,9.2,-,N/A,,Overcast,300,2012-10-15 22:53:00
7:53 PM,50.0,42.1,74,29.94,10.0,WNW,8.1,-,N/A,,Overcast,300,2012-10-15 23:53:00
8:53 PM,48.9,41.0,74,29.95,10.0,WNW,9.2,-,N/A,,Overcast,290,2012-10-16 00:53:00
9:53 PM,48.9,41.0,74,29.96,10.0,WNW,8.1,-,N/A,,Overcast,290,2012-10-16 01:53:00
10:53 PM,48.0,39.0,71,29.96,10.0,WNW,6.9,-,N/A,,Overcast,300,2012-10-16 02:53:00
11:53 PM,48.0,39.9,74,29.96,10.0,NW,4.6,-,N/A,,Overcast,320,2012-10-16 03:53:00